IRIDIUM 33 DEB, 37562

Orbit data source: Space-Track

IRIDIUM 33 DEB, 37562 is space debris in LEO originally from a launch on Sun, 14 Sep 1997 UTC launched from the Tyuratam Missile And Space Complex (TTMTR). The debris from Iridium 33, an American commercial communications satellite, has been tracked extensively since its accidental collision with the defunct Russian satellite Cosmos 2251 in 2009. This event, occurring at high speed in low Earth orbit (LEO), generated thousands of pieces of space debris, significantly increasing the risk of further collisions. The Iridium 33 debris cloud has impacted space traffic management and orbital debris mitigation strategies, making it a subject of ongoing study in space situational awareness.

Loading next visibility...
Identifier
37562, 1997-051XX
Orbit
LEO
Country
Flag of USUS
Related business
Manufacturer
Unknown
Mission
Spacecraft
Bus & Motor
Unknown
Mass
Unknown
Launch date (UTC)
1997-09-14 (29 years ago)
Launch vehicle
Unknown
Launch site
Tyuratam Missile And Space Complex (TTMTR)
Object type
Payload
Rocket body
Debris
Shape & HBR
Unknown shape, 0.1 m
Radar Cross Section
Small (<0.1 m²)

Expand to show TLE details & history
Last TLE update: 15 hours ago

TLE from 15 hours ago
0 IRIDIUM 33 DEB
1 37562U 97051XX  26262.81678670  .00002025  00000-0  42707-3 0  9998
2 37562  86.3693 280.7747 0021630 230.6045 304.6280 14.58833868904232
Epoch: 2026-09-19T19:36Z
TLE epoch observation values (Epoch: 2026-09-19T19:36:10.370Z)
Latitude
4.87183°
Longitude
167.70339°
Altitude
690.851 km
Speed
7.516 km/s
True Right ascension
06h 41m 51s
True Declination
4° 50' 33"
Sunlit
Object was in daylight at epoch
Visualization orbit readout
Latitude
Unknown
Longitude
Unknown
Altitude
Unknown
Speed
Unknown
Apparent Right ascension
Unknown
Apparent Declination
Unknown
Sunlit
N/A
Visualization observer readout
Local Sidereal Time
03:48:10
Azimuth
Unknown
Elevation
Unknown
Doppler factor
Unknown
Orbital elements
Apogee altitude
709.169 km
Perigee altitude
678.575 km
Semi-major axis
7,072.009 km
Eccentricity
0.00216
Inclination
86.3693°
RAAN
280.7747°
Arg. of periapsis
230.6045°
True anomaly
304.42373°
Mean anomaly
304.628°
Eccentric anomaly
304.5259°
Mean motion
3.64946 °/min
Orbital period
98.64 mins
BSTAR
0.00042707
Loading maneuver chart data...
Computing Atmospheric mass density...

Documentation

Showing up to 5 results
|